Retour au catalogue

STARLINK-36214

ActifCommunicationsVLEO
NORAD 67129·PAYLOAD·🇺🇸 United States

Lancé Dec 15, 2025 depuis Cape Canaveral Space Force Station

Loading…

Prochains Passages (prochaines 24 heures)

TLE

FraisSource: CelesTrak SupGP

Époque: Sep 14, 2026, 23:12 UTC

1 67129C 25299AD  26257.96715278 -.00061923  00000+0 -22427-2 0  2577
2 67129  43.0004 180.3978 0001345 269.7409 310.1076 15.27610684    13

Suivez STARLINK-36214 en temps réel avec AllMySat

Download on the App Store